Group_ship,Cruise,JD_GMT,Date_DDMMYYYY,TIME_HH:MM:SS,Lat_dec_degree,Long_dec_degree,xCO2eq_ppm,xCO2a_ppm,Pres_Equi_hPa,Pres_sealevel_hPa,EqTemp_C,SST(TSG)_C,Sal(TSG)_Permil,Water_flow_l/min,Gasflow_IR_ml/min,Temp_IR_C,Pres_IR_hPa,Ship_heading_true_degree,Ship_speed_knot,Wind_dir_rel_degree,Wind_speed_rel_m/s,fCO2W@SST_uatm,Qcflag_water,fCO2a_uatm,Qcflag_air,dfCO2_uatm,Fluoro_ug/l,Wind_speed_true_m/s,Wind_dir_true_degree,Air_temp_C,Oxygen
AOML_Explorer,Ex0503W,17.196,17012005,4:42:04,24.353,-80.65,395.07,-9,1021.53,1018.11,25.63,25.82,36.447,1.83,79.01,30.38,1021.53,238.7,20.3,83,13.38,387.21,2,-9,9,-9,0.25,16.13,3.09,16.17,-9
AOML_Explorer,Ex0503W,17.198,17012005,4:44:37,24.346,-80.663,395.15,-9,1021.43,1017.79,25.62,25.81,36.451,1.85,83,30.37,1021.43,238.8,20.5,76,16.47,387.22,2,-9,9,-9,0.27,17.61,352.62,16.33,-9
AOML_Explorer,Ex0503W,17.199,17012005,4:47:10,24.338,-80.677,396.05,-9,1021.6,1018.1,25.62,25.8,36.453,1.83,82.98,30.37,1021.6,238.3,20.5,85,13.9,388.14,2,-9,9,-9,0.28,16.91,3.22,16.43,-9
AOML_Explorer,Ex0503W,17.201,17012005,4:49:43,24.331,-80.691,396.24,-9,1021.45,1018.1,25.61,25.8,36.46,1.83,83.23,30.37,1021.45,237.8,20.5,73,16.99,388.29,2,-9,9,-9,0.27,17.41,347.84,16.54,-9
AOML_Explorer,Ex0503W,17.203,17012005,4:52:16,24.323,-80.704,396.8,-9,1021.58,1017.82,25.6,25.81,36.465,1.84,82.86,30.37,1021.58,239,20.5,85,14.93,389.12,2,-9,9,-9,0.28,17.63,1.4,16.76,-9
AOML_Explorer,Ex0503W,17.205,17012005,4:54:49,24.316,-80.718,397.54,-9,1021.5,1018.32,25.61,25.81,36.479,1.83,83.15,30.37,1021.5,244.6,20.4,74,14.41,389.73,2,-9,9,-9,0.29,15.56,0.86,16.74,-9
AOML_Explorer,Ex0503W,17.207,17012005,4:57:22,24.311,-80.733,397.8,-9,1021.07,1017.81,25.61,25.81,36.492,1.84,84.8,30.36,1021.07,251.7,20.5,67,19.04,389.73,2,-9,9,-9,0.27,18.03,352.89,16.77,-9
AOML_Explorer,Ex0503W,17.208,17012005,4:59:55,24.306,-80.748,398.48,-9,1021.28,1017.25,25.62,25.82,36.486,1.85,78.44,30.36,1021.28,252.7,20.6,62,20.59,390.61,2,-9,9,-9,0.28,18.33,346.33,16.4,-9
AOML_Explorer,Ex0503W,17.22,17012005,5:16:34,24.276,-80.849,397.06,-9,1021.47,1017.55,25.61,25.85,36.49,1.84,81.01,30.43,1021.47,248.4,20.9,74,18.01,389.77,2,-9,9,-9,0.27,18.23,356.76,16.5,-9
AOML_Explorer,Ex0503W,17.222,17012005,5:19:07,24.27,-80.864,397.73,-9,1021.4,1017.81,25.65,25.84,36.477,1.82,80.84,30.43,1021.4,247.6,20.9,76,16.47,389.79,2,-9,9,-9,0.24,17.26,0.08,16.5,-9
AOML_Explorer,Ex0503W,17.223,17012005,5:21:40,24.265,-80.879,398.56,-9,1021.42,1017.53,25.64,25.83,36.454,1.82,81.66,30.44,1021.42,248.2,20.8,72,19.56,390.51,2,-9,9,-9,0.24,19.21,352.43,16.03,-9
AOML_Explorer,Ex0503W,17.225,17012005,5:24:13,24.259,-80.894,398.33,-9,1021.28,1017.81,25.63,25.83,36.448,1.83,82.08,30.45,1021.28,247.4,21,76,16.99,390.48,2,-9,9,-9,0.23,17.81,359.79,15.79,-9
AOML_Explorer,Ex0503W,17.227,17012005,5:26:46,24.253,-80.909,397.8,-9,1021.38,1017.24,25.63,25.83,36.441,1.83,82.67,30.45,1021.38,247.2,21,71,19.56,389.87,2,-9,9,-9,0.21,19.14,351.29,15.88,-9
AOML_Explorer,Ex0503W,17.229,17012005,5:29:19,24.248,-80.924,397.76,-9,1021.58,1017.79,25.63,25.8,36.435,1.84,82.73,30.45,1021.58,247.1,21.1,71,18.01,389.55,2,-9,9,-9,0.21,17.84,353.84,15.84,-9
AOML_Explorer,Ex0503W,17.23,17012005,5:31:52,24.242,-80.939,397.75,-9,1021.47,1017.53,25.61,25.75,36.451,1.84,82.53,30.45,1021.47,248.1,21,69,19.04,389.15,2,-9,9,-9,0.2,18.21,350.79,15.65,-9
AOML_Explorer,Ex0503W,17.232,17012005,5:34:25,24.236,-80.954,397.73,-9,1021.6,1017.81,25.58,25.68,36.441,1.81,82.8,30.45,1021.6,246.6,21.1,81,15.44,388.57,2,-9,9,-9,0.2,17.46,5.61,15.76,-9
AOML_Explorer,Ex0503W,17.234,17012005,5:36:58,24.231,-80.969,397.86,-9,1021.64,1018.12,25.51,25.63,36.433,1.85,83.09,30.45,1021.64,248.2,21,69,16.47,388.98,2,-9,9,-9,0.2,16.18,355.96,16.03,-9
AOML_Explorer,Ex0503W,17.236,17012005,5:39:31,24.225,-80.984,397.43,-9,1021.41,1017.79,25.46,25.51,36.449,1.84,86.3,30.44,1021.41,247.3,21.1,69,16.99,387.53,2,-9,9,-9,0.22,16.66,354.5,15.61,-9
AOML_Explorer,Ex0503W,17.238,17012005,5:42:04,24.219,-81,396.61,-9,1021.48,1017.79,25.37,25.43,36.444,1.84,82.96,30.44,1021.48,248.3,21.2,58,19.56,387.01,2,-9,9,-9,0.22,16.45,339.54,15.88,-9
AOML_Explorer,Ex0503W,17.239,17012005,5:44:37,24.214,-81.015,396.36,-9,1021.53,1017.23,25.29,25.44,36.428,1.82,83.2,30.44,1021.53,248.1,21.3,68,19.04,388.22,2,-9,9,-9,0.23,17.99,350.09,15.95,-9
AOML_Explorer,Ex0503W,17.241,17012005,5:47:10,24.208,-81.03,396.38,-9,1021.6,1017.51,25.28,25.33,36.456,1.81,83.02,30.44,1021.6,247.1,21.3,70,17.5,386.85,2,-9,9,-9,0.23,17.19,353.87,15.96,-9
AOML_Explorer,Ex0503W,17.243,17012005,5:49:43,24.202,-81.045,396.13,-9,1021.6,1017.52,25.21,25.11,36.476,1.84,83.23,30.43,1021.6,246.9,21.4,71,16.99,384.55,2,-9,9,-9,0.23,16.96,355.72,15.92,-9
AOML_Explorer,Ex0503W,17.245,17012005,5:52:16,24.196,-81.061,395.87,-9,1021.48,1017.82,25.04,24.86,36.512,1.85,83.15,30.43,1021.48,247.1,21.4,72,16.47,383.18,2,-9,9,-9,0.24,16.91,358.52,15.68,-9
AOML_Explorer,Ex0503W,17.246,17012005,5:54:49,24.19,-81.076,395.01,-9,1021.47,1017.79,24.82,24.59,36.476,1.85,83.32,30.43,1021.47,246.8,21.5,78,16.47,381.83,2,-9,9,-9,0.26,18,2.78,15.76,-9
AOML_Explorer,Ex0503W,17.248,17012005,5:57:22,24.185,-81.091,394.28,-9,1021.5,1018.11,24.53,24.57,36.485,1.86,82.93,30.43,1021.5,248.1,21.4,65,15.96,385.22,2,-9,9,-9,0.24,15.3,355.39,15.53,-9
AOML_Explorer,Ex0503W,17.25,17012005,5:59:55,24.179,-81.107,392.8,-9,1021.47,1018.12,24.5,24.41,36.493,1.83,81.79,30.43,1021.47,248.7,21.2,74,16.99,381.82,2,-9,9,-9,0.24,17.58,359.99,15.74,-9
AOML_Explorer,Ex0503W,17.262,17012005,6:16:34,24.142,-81.206,387.77,-9,1021.85,1017.79,23.81,23.93,36.482,1.8,82.02,30.49,1021.85,248,20.8,88,13.9,380.43,2,-9,9,-9,0.31,17.39,14.97,15.97,-9
AOML_Explorer,Ex0503W,17.263,17012005,6:19:07,24.136,-81.22,388.08,-9,1021.55,1018.05,23.84,24.04,36.468,1.8,81.47,30.49,1021.55,247.5,20.9,69,17.5,381.66,2,-9,9,-9,0.31,17.12,353.69,16.18,-9
AOML_Explorer,Ex0503W,17.265,17012005,6:21:40,24.131,-81.235,388.64,-9,1021.8,1018.09,23.92,24.05,36.481,1.82,82.02,30.49,1021.8,247.3,20.9,67,15.96,381.37,2,-9,9,-9,0.32,15.54,355.17,15.67,-9
AOML_Explorer,Ex0503W,17.267,17012005,6:24:13,24.125,-81.25,389.54,-9,1021.65,1018.08,23.96,24.34,36.406,1.85,83.01,30.49,1021.65,247.3,20.8,74,17.5,385.66,2,-9,9,-9,0.3,17.95,357.16,16,-9
AOML_Explorer,Ex0503W,17.269,17012005,6:26:46,24.119,-81.265,390.1,-9,1021.95,1018.29,24.12,24.27,36.49,1.83,83.15,30.49,1021.95,246.8,20.7,73,18.01,382.93,2,-9,9,-9,0.27,18.19,354.73,16.14,-9
AOML_Explorer,Ex0503W,17.27,17012005,6:29:19,24.114,-81.28,390.41,-9,1021.98,1018.58,24.17,24.61,36.419,1.81,82.83,30.49,1021.98,247.7,20.5,73,14.41,387.35,2,-9,9,-9,0.25,15.31,2.82,15.76,-9
AOML_Explorer,Ex0503W,17.272,17012005,6:31:52,24.108,-81.295,390.95,-9,1021.87,1018.09,24.4,24.72,36.424,1.82,82.62,30.49,1021.87,248,20.5,64,17.5,385.99,2,-9,9,-9,0.23,16.05,348.75,15.85,-9
AOML_Explorer,Ex0503W,17.274,17012005,6:34:25,24.103,-81.31,391.51,-9,1021.83,1018.29,24.53,24.84,36.432,1.82,82.97,30.49,1021.83,247.4,20.5,81,16.47,386.44,2,-9,9,-9,0.23,18.19,3.83,15.82,-9
AOML_Explorer,Ex0503W,17.276,17012005,6:36:58,24.097,-81.324,392.61,-9,1021.93,1018.6,24.66,24.94,36.425,1.85,86.71,30.49,1021.93,247.1,20.5,70,14.41,386.9,2,-9,9,-9,0.24,14.56,359.33,15.84,-9
AOML_Explorer,Ex0503W,17.277,17012005,6:39:31,24.092,-81.339,393.78,-9,1021.89,1018.85,24.74,25.03,36.43,1.8,83.27,30.48,1021.89,248.3,20.4,90,12.87,388.08,2,-9,9,-9,0.23,16.48,16.98,16.03,-9
AOML_Explorer,Ex0503W,17.279,17012005,6:42:04,24.086,-81.353,394.72,-9,1021.97,1018.84,24.85,25.11,36.418,1.83,81.13,30.48,1021.97,248.5,20.3,72,14.41,388.65,2,-9,9,-9,0.23,14.86,1.7,15.89,-9
AOML_Explorer,Ex0503W,17.281,17012005,6:44:37,24.081,-81.368,395.38,-9,1022.05,1018.85,24.91,25.1,36.436,1.82,85.73,30.47,1022.05,248.1,20.3,82,14.41,388.21,2,-9,9,-9,0.21,16.46,8.3,15.73,-9
AOML_Explorer,Ex0503W,17.283,17012005,6:47:10,24.075,-81.383,395.91,-9,1021.9,1018.1,24.94,25.17,36.401,1.84,85.56,30.47,1021.9,247.5,20.3,68,16.47,389.37,2,-9,9,-9,0.23,15.74,352.58,16.16,-9
AOML_Explorer,Ex0503W,17.285,17012005,6:49:43,24.07,-81.397,396.44,-9,1022.05,1018.86,24.96,25.19,36.416,1.83,83.42,30.47,1022.05,246.7,20.3,74,14.93,389.7,2,-9,9,-9,0.23,15.61,0.2,15.96,-9
AOML_Explorer,Ex0503W,17.286,17012005,6:52:16,24.064,-81.412,396.95,-9,1022,1018.59,25.01,25.13,36.423,1.82,84.19,30.47,1022,247.6,20.1,95,11.84,388.68,2,-9,9,-9,0.24,16.23,21.01,16.09,-9
AOML_Explorer,Ex0503W,17.288,17012005,6:54:49,24.059,-81.426,397.61,-9,1021.79,1018.35,24.97,25.08,36.436,1.84,83.14,30.46,1021.79,247,20.1,86,15.96,389.11,2,-9,9,-9,0.23,18.44,7.32,16.14,-9
AOML_Explorer,Ex0503W,17.29,17012005,6:57:22,24.053,-81.441,397.56,-9,1021.99,1018.85,24.93,25.08,36.408,1.81,85.72,30.46,1021.99,245.7,20.2,72,14.93,389.77,2,-9,9,-9,0.23,15.38,358.11,15.71,-9
AOML_Explorer,Ex0503W,17.292,17012005,6:59:55,24.048,-81.455,397.65,-9,1021.91,1017.78,24.9,25.14,36.412,1.84,80.44,30.46,1021.91,248,20.3,80,16.99,391.08,2,-9,9,-9,0.22,18.37,2.22,16.08,-9
AOML_Explorer,Ex0503W,17.303,17012005,7:16:34,24.012,-81.551,396.43,-9,1021.85,1018.07,25.22,25.55,36.392,1.84,82.23,30.51,1021.85,247.3,20.7,72,18.01,390.9,2,-9,9,-9,0.26,17.96,354.35,16.05,-9
AOML_Explorer,Ex0503W,17.305,17012005,7:19:07,24.006,-81.566,397.22,-9,1021.9,1018.87,25.29,25.62,36.427,1.86,81.99,30.52,1021.9,246.9,20.7,70,14.93,391.59,2,-9,9,-9,0.24,15.04,358.39,16.07,-9
AOML_Explorer,Ex0503W,17.307,17012005,7:21:40,24.001,-81.581,398.71,-9,1021.82,1018.09,25.39,25.64,36.43,1.85,83.61,30.52,1021.82,247.4,20.7,84,16.47,391.87,2,-9,9,-9,0.26,18.66,6.02,16.4,-9
AOML_Explorer,Ex0503W,17.308,17012005,7:24:13,23.995,-81.596,399.73,-9,1021.93,1018.32,25.42,25.68,36.422,1.85,82.36,30.52,1021.93,247,20.6,84,12.87,393.12,2,-9,9,-9,0.28,15.67,12.39,16.61,-9
AOML_Explorer,Ex0503W,17.31,17012005,7:26:46,23.99,-81.611,400.62,-9,1021.76,1018.32,25.46,25.72,36.438,1.83,82.55,30.51,1021.76,250.3,20.5,69,15.96,393.99,2,-9,9,-9,0.28,15.73,358.51,16.24,-9
AOML_Explorer,Ex0503W,17.312,17012005,7:29:19,23.985,-81.626,400.95,-9,1021.76,1018.32,25.51,25.75,36.443,1.87,82.49,30.51,1021.76,253.9,20.8,73,14.93,393.93,2,-9,9,-9,0.27,15.49,7.42,16.48,-9
AOML_Explorer,Ex0503W,17.314,17012005,7:31:52,23.981,-81.642,401.6,-9,1021.76,1018.31,25.53,25.75,36.446,1.82,82.26,30.51,1021.76,254.5,20.7,78,14.93,394.24,2,-9,9,-9,0.27,16.12,10.61,17.02,-9
AOML_Explorer,Ex0503W,17.316,17012005,7:34:25,23.977,-81.657,402.3,-9,1021.74,1018.1,25.54,25.75,36.447,1.85,78.93,30.5,1021.74,253.9,20.6,58,15.96,394.67,2,-9,9,-9,0.25,13.57,352.27,16.56,-9
AOML_Explorer,Ex0503W,17.317,17012005,7:36:58,23.973,-81.673,402.62,-9,1021.71,1018.3,25.54,25.67,36.444,1.85,82.86,30.5,1021.71,253.7,20.8,65,15.96,393.8,2,-9,9,-9,0.23,14.89,358.34,16.31,-9
AOML_Explorer,Ex0503W,17.319,17012005,7:39:31,23.968,-81.689,402.3,-9,1021.79,1018.09,25.49,25.61,36.443,1.84,83.12,30.49,1021.79,253,20.9,73,15.44,393.51,2,-9,9,-9,0.22,15.95,5.56,16.72,-9
AOML_Explorer,Ex0503W,17.321,17012005,7:42:04,23.964,-81.704,401.29,-9,1021.75,1018.09,25.43,25.56,36.442,1.85,80.08,30.49,1021.75,253.3,20.9,69,16.47,392.71,2,-9,9,-9,0.23,16.02,0.36,16.48,-9
AOML_Explorer,Ex0503W,17.323,17012005,7:44:37,23.959,-81.719,401.42,-9,1021.86,1018.6,25.38,25.48,36.443,1.84,83.23,30.48,1021.86,244.9,20.8,68,15.44,392.42,2,-9,9,-9,0.23,15.08,353.61,16.67,-9
AOML_Explorer,Ex0503W,17.324,17012005,7:47:10,23.953,-81.734,400.67,-9,1021.97,1018.3,25.32,25.47,36.417,1.84,83.09,30.48,1021.97,244.9,20.8,82,13.9,392.52,2,-9,9,-9,0.22,16.25,7.22,16.79,-9
AOML_Explorer,Ex0503W,17.326,17012005,7:49:43,23.946,-81.749,399.71,-9,1022.09,1018.61,25.28,25.51,36.417,1.87,85.6,30.48,1022.09,244.2,20.8,86,13.9,392.76,2,-9,9,-9,0.24,17,9.54,16.5,-9
AOML_Explorer,Ex0503W,17.328,17012005,7:52:16,23.94,-81.763,399.68,-9,1022.06,1018.87,25.31,25.55,36.428,1.84,83.43,30.47,1022.06,244.6,20.7,83,13.9,392.87,2,-9,9,-9,0.26,16.48,7.75,16.59,-9
AOML_Explorer,Ex0503W,17.33,17012005,7:54:49,23.934,-81.778,399.96,-9,1022.27,1018.87,25.35,25.59,36.443,1.84,83.6,30.47,1022.27,245.4,20.7,85,11.84,393.16,2,-9,9,-9,0.26,15.2,14.54,16.71,-9
AOML_Explorer,Ex0503W,17.332,17012005,7:57:22,23.928,-81.793,399.88,-9,1021.99,1018.31,25.38,25.62,36.453,1.86,85.36,30.46,1021.99,245.3,20.8,83,14.41,392.88,2,-9,9,-9,0.26,16.91,7.47,16.6,-9
AOML_Explorer,Ex0503W,17.333,17012005,7:59:55,23.921,-81.807,400.15,-9,1022.04,1018.88,25.41,25.58,36.472,1.88,83.39,30.46,1022.04,244.6,20.9,85,12.35,392.19,2,-9,9,-9,0.24,15.66,12.79,16.43,-9
AOML_Explorer,Ex0503W,17.345,17012005,8:16:34,23.881,-81.903,394.73,-9,1022.27,1018.6,25.46,25.68,36.462,1.86,86.39,30.5,1022.27,244.6,20.9,85,13.38,387.69,2,-9,9,-9,0.28,16.48,10.35,16.6,-9
AOML_Explorer,Ex0503W,17.347,17012005,8:19:07,23.875,-81.918,395.55,-9,1022.28,1019.16,25.47,25.64,36.471,1.84,81.87,30.51,1022.28,245.1,20.9,98,11.84,387.81,2,-9,9,-9,0.27,17.04,21.52,16.77,-9
AOML_Explorer,Ex0503W,17.348,17012005,8:21:40,23.868,-81.933,395.55,-9,1022.26,1019.24,25.45,25.58,36.473,1.85,81.76,30.51,1022.26,243.9,20.8,71,11.84,387.18,2,-9,9,-9,0.24,13.17,5.55,16.84,-9
AOML_Explorer,Ex0503W,17.35,17012005,8:24:13,23.862,-81.948,395.39,-9,1022.23,1018.66,25.4,25.57,36.454,1.86,81.83,30.51,1022.23,246.1,20.9,76,14.41,387.62,2,-9,9,-9,0.31,15.75,3.41,16.93,-9
AOML_Explorer,Ex0503W,17.352,17012005,8:26:46,23.856,-81.962,394.82,-9,1022.36,1019.44,25.36,25.52,36.466,1.86,83.11,30.51,1022.36,244.6,20.9,80,10.81,386.98,2,-9,9,-9,0.24,13.84,14.36,16.67,-9
AOML_Explorer,Ex0503W,17.354,17012005,8:29:19,23.85,-81.977,395.25,-9,1022.33,1018.88,25.34,25.41,36.477,1.87,82.06,30.5,1022.33,245.3,21.1,78,11.32,386.17,2,-9,9,-9,0.25,13.94,12.73,16.74,-9
AOML_Explorer,Ex0503W,17.355,17012005,8:31:52,23.844,-81.992,393.8,-9,1022.29,1018.87,25.26,25.36,36.473,1.84,82.47,30.5,1022.29,246.7,21.1,85,11.32,385.24,2,-9,9,-9,0.24,14.86,17.52,16.93,-9
AOML_Explorer,Ex0503W,17.357,17012005,8:34:25,23.838,-82.007,393.14,-9,1022.2,1018.88,25.21,25.43,36.449,1.88,79.08,30.49,1022.2,245.8,20.8,70,13.9,386.37,2,-9,9,-9,0.24,14.31,0.15,16.89,-9
AOML_Explorer,Ex0503W,17.359,17012005,8:36:58,23.832,-82.022,392.7,-9,1022.24,1019.17,25.23,25.54,36.458,1.85,82.64,30.49,1022.24,246.3,20.9,87,14.41,387.08,2,-9,9,-9,0.28,17.46,10.9,16.89,-9
AOML_Explorer,Ex0503W,17.361,17012005,8:39:31,23.826,-82.037,393.01,-9,1022.33,1019.16,25.33,25.52,36.464,1.86,81.84,30.49,1022.33,246.6,21.1,96,10.29,385.71,2,-9,9,-9,0.31,15.64,25.64,16.93,-9
AOML_Explorer,Ex0503W,17.363,17012005,8:42:04,23.82,-82.052,393.36,-9,1022.4,1019.42,25.34,25.47,36.474,1.84,81.72,30.49,1022.4,247.1,21.3,89,9.78,385.34,2,-9,9,-9,0.29,14.47,24.51,16.93,-9
AOML_Explorer,Ex0503W,17.364,17012005,8:44:37,23.814,-82.067,393.36,-9,1022.44,1018.86,25.3,25.41,36.478,1.85,82.77,30.48,1022.44,247.2,21.1,84,12.35,384.92,2,-9,9,-9,0.24,15.62,15.32,16.58,-9
AOML_Explorer,Ex0503W,17.366,17012005,8:47:10,23.808,-82.082,392.93,-9,1022.48,1018.88,25.25,25.26,36.494,1.83,83.17,30.48,1022.48,246.6,21.1,76,12.35,383.22,2,-9,9,-9,0.25,14.29,9.7,16.68,-9
AOML_Explorer,Ex0503W,17.368,17012005,8:49:43,23.802,-82.097,391.84,-9,1022.46,1019.42,25.13,25.2,36.487,1.83,82.94,30.47,1022.46,245.7,21.3,88,10.81,382.99,2,-9,9,-9,0.24,15.09,20,16.79,-9
AOML_Explorer,Ex0503W,17.37,17012005,8:52:16,23.796,-82.112,390.96,-9,1022.47,1019.42,25.06,25.03,36.482,1.85,82.88,30.47,1022.47,247.2,21.2,81,11.32,380.88,2,-9,9,-9,0.23,14.31,16.09,16.64,-9
AOML_Explorer,Ex0503W,17.371,17012005,8:54:49,23.79,-82.127,389.69,-9,1022.37,1018.63,24.93,25.03,36.448,1.88,82.99,30.46,1022.37,246.1,21.2,85,14.41,381.5,2,-9,9,-9,0.22,17.34,10.2,16.96,-9
AOML_Explorer,Ex0503W,17.373,17012005,8:57:22,23.784,-82.142,388.5,-9,1022.63,1019.45,24.87,25,36.467,1.87,83.11,30.46,1022.63,246.5,21.1,85,10.81,380.83,2,-9,9,-9,0.23,14.63,19.01,16.8,-9
AOML_Explorer,Ex0503W,17.375,17012005,8:59:55,23.778,-82.157,387.43,-9,1022.63,1019.45,24.86,24.95,36.462,1.87,80.31,30.46,1022.63,246.2,21.1,79,11.84,379.21,2,-9,9,-9,0.25,14.5,12.86,17.13,-9
AOML_Explorer,Ex0503W,17.387,17012005,9:16:34,23.74,-82.254,378.97,-9,1022.7,1019.44,24.03,24.04,36.469,1.84,78.95,30.5,1022.7,246.3,20.7,79,12.35,370.5,2,-9,9,-9,0.31,14.95,11.66,16.5,-9
AOML_Explorer,Ex0503W,17.388,17012005,9:19:07,23.734,-82.268,380.08,-9,1022.59,1019.44,23.99,23.89,36.471,1.82,81.61,30.5,1022.59,246.7,20.9,94,11.32,370.02,2,-9,9,-9,0.34,16.26,22.68,16.81,-9
AOML_Explorer,Ex0503W,17.39,17012005,9:21:40,23.728,-82.283,380.02,-9,1022.72,1019.45,23.87,23.81,36.442,1.82,84.35,30.5,1022.72,246.7,21,85,12.35,370.58,2,-9,9,-9,0.29,15.86,15.71,16.84,-9
AOML_Explorer,Ex0503W,17.392,17012005,9:24:13,23.722,-82.298,379.66,-9,1022.66,1019.71,23.76,23.89,36.409,1.84,84.53,30.5,1022.66,246.3,20.9,86,11.32,373.02,2,-9,9,-9,0.32,15.31,18.55,16.65,-9
AOML_Explorer,Ex0503W,17.394,17012005,9:26:46,23.717,-82.313,379.92,-9,1022.43,1019.18,23.77,23.92,36.43,1.84,86.35,30.5,1022.43,247.2,20.8,81,13.38,373.44,2,-9,9,-9,0.31,15.93,10.79,17.07,-9
AOML_Explorer,Ex0503W,17.395,17012005,9:29:19,23.711,-82.328,380.09,-9,1022.64,1019.47,23.82,23.83,36.454,1.82,80.85,30.49,1022.64,246.7,21,88,10.29,371.7,2,-9,9,-9,0.34,14.78,22.56,16.74,-9
AOML_Explorer,Ex0503W,17.397,17012005,9:31:52,23.705,-82.342,380.4,-9,1022.59,1019.73,23.77,23.73,36.459,1.85,78.5,30.49,1022.59,247.2,21.1,70,9.78,371.36,2,-9,9,-9,0.41,11.98,16.79,16.93,-9
AOML_Explorer,Ex0503W,17.399,17012005,9:34:25,23.699,-82.357,380.63,-9,1022.56,1019.19,23.69,23.65,36.458,1.86,80.45,30.48,1022.56,246.5,21.1,89,13.38,371.57,2,-9,9,-9,0.35,17.32,15.93,16.93,-9
AOML_Explorer,Ex0503W,17.401,17012005,9:36:58,23.693,-82.372,380.88,-9,1022.55,1019.74,23.62,23.55,36.455,1.83,80.45,30.48,1022.55,246.2,21.1,75,11.32,371.43,2,-9,9,-9,0.29,13.74,12.87,16.67,-9
AOML_Explorer,Ex0503W,17.402,17012005,9:39:31,23.687,-82.387,380.08,-9,1022.52,1018.89,23.49,23.64,36.458,1.83,82.88,30.47,1022.52,246.8,20.8,84,12.35,373.77,2,-9,9,-9,0.29,15.74,15.19,16.81,-9
AOML_Explorer,Ex0503W,17.406,17012005,9:44:37,23.676,-82.416,379.63,-9,1022.6,1019.43,24.05,24.75,36.436,1.81,83.84,30.47,1022.6,246.4,19.9,57,9.26,380.85,2,-9,9,-9,0.19,9.76,11.17,17.06,-9
AOML_Explorer,Ex0503W,17.408,17012005,9:47:10,23.67,-82.43,381.6,-9,1022.61,1019.47,24.5,25.03,36.435,1.86,83.14,30.46,1022.61,245.7,19.9,85,11.84,379.97,2,-9,9,-9,0.2,15.42,15.38,16.82,-9
AOML_Explorer,Ex0503W,17.41,17012005,9:49:43,23.664,-82.444,383.42,-9,1022.55,1019.45,24.76,25.21,36.435,1.84,80.28,30.46,1022.55,246.9,20,74,11.32,380.39,2,-9,9,-9,0.22,13.52,12.13,16.96,-9
AOML_Explorer,Ex0503W,17.411,17012005,9:52:16,23.659,-82.458,384.44,-9,1022.62,1019.72,24.95,25.33,36.457,1.82,81.89,30.46,1022.62,246.8,20.1,77,10.81,380.38,2,-9,9,-9,0.24,13.52,14.98,16.75,-9
AOML_Explorer,Ex0503W,17.413,17012005,9:54:49,23.653,-82.473,386.06,-9,1022.52,1019.44,25.09,25.61,36.424,1.85,83.21,30.45,1022.52,247.9,20.2,91,13.9,383.68,2,-9,9,-9,0.26,17.82,16.77,17.04,-9
AOML_Explorer,Ex0503W,17.415,17012005,9:57:22,23.647,-82.487,387.3,-9,1022.63,1019.45,25.31,25.78,36.436,1.84,81.48,30.45,1022.63,246.9,20.4,88,10.81,384.19,2,-9,9,-9,0.31,15.11,21.25,17.04,-9
AOML_Explorer,Ex0503W,17.417,17012005,9:59:55,23.642,-82.501,389.42,-9,1022.64,1019.74,25.49,25.84,36.453,1.83,83.12,30.44,1022.64,246.1,20.3,87,9.26,384.48,2,-9,9,-9,0.28,13.91,24.33,17.29,-9
AOML_Explorer,Ex0503W,17.428,17012005,10:16:34,23.605,-82.594,389.09,-9,1022.74,1019.73,25.68,25.92,36.459,1.84,84.95,30.49,1022.74,247.1,17.9,95,10.29,382.46,2,-9,9,-9,0.26,14.73,23.13,17.17,-9
AOML_Explorer,Ex0503W,17.43,17012005,10:19:07,23.6,-82.607,389.13,-9,1022.87,1020.01,25.68,25.92,36.457,1.86,81.6,30.49,1022.87,246.5,18.3,95,10.81,382.5,2,-9,9,-9,0.27,15.19,21.68,17.2,-9
AOML_Explorer,Ex0503W,17.432,17012005,10:21:40,23.595,-82.62,389.26,-9,1022.87,1020.31,25.68,25.91,36.457,1.85,81.66,30.49,1022.87,247.5,18.7,71,4.12,382.54,2,-9,9,-9,0.27,9.25,42.4,17.3,-9
AOML_Explorer,Ex0503W,17.433,17012005,10:24:13,23.589,-82.633,389.7,-9,1022.74,1020.01,25.67,25.91,36.454,1.86,81.5,30.49,1022.74,246.2,18.7,84,10.29,383.04,2,-9,9,-9,0.25,13.55,16.96,17.25,-9
AOML_Explorer,Ex0503W,17.435,17012005,10:26:46,23.584,-82.647,389.73,-9,1022.7,1019.44,25.67,25.92,36.449,1.86,82.06,30.49,1022.7,246.7,18.8,90,13.38,383.12,2,-9,9,-9,0.26,16.82,14.06,17.29,-9
AOML_Explorer,Ex0503W,17.437,17012005,10:29:19,23.579,-82.66,389.95,-9,1022.98,1020,25.68,25.9,36.457,1.85,82.6,30.49,1022.98,246.6,18.9,93,9.26,383.15,2,-9,9,-9,0.26,14.04,25.51,17.26,-9
AOML_Explorer,Ex0503W,17.439,17012005,10:31:52,23.573,-82.673,390.48,-9,1023.09,1020.31,25.67,25.89,36.447,1.84,82.59,30.49,1023.09,245.8,18.9,88,8.75,383.63,2,-9,9,-9,0.27,13.16,23.71,17.13,-9
AOML_Explorer,Ex0503W,17.441,17012005,10:34:25,23.568,-82.687,390.5,-9,1023.09,1020.03,25.65,25.88,36.445,1.82,82.77,30.49,1023.09,246.2,18.9,83,11.32,383.79,2,-9,9,-9,0.24,14.22,13.83,17.35,-9
AOML_Explorer,Ex0503W,17.442,17012005,10:36:58,23.563,-82.7,390.16,-9,1023.13,1020.31,25.65,25.88,36.449,1.8,82.98,30.49,1023.13,246.4,19,93,8.75,383.51,2,-9,9,-9,0.24,13.66,26.75,17.57,-9
AOML_Explorer,Ex0503W,17.444,17012005,10:39:31,23.557,-82.714,390.31,-9,1023.23,1020.29,25.65,25.83,36.453,1.8,81.25,30.48,1023.23,247.2,19,95,8.75,383.01,2,-9,9,-9,0.21,13.92,28.72,17.46,-9
AOML_Explorer,Ex0503W,17.446,17012005,10:42:04,23.552,-82.727,389.67,-9,1023.28,1020.01,25.62,25.79,36.449,1.81,82.85,30.48,1023.28,246.8,19,80,11.32,382.27,2,-9,9,-9,0.23,13.89,13.09,17.53,-9
AOML_Explorer,Ex0503W,17.448,17012005,10:44:37,23.547,-82.741,388.7,-9,1023.2,1020.31,25.58,25.82,36.437,1.81,85.86,30.48,1023.2,246.6,19,81,13.38,382.28,2,-9,9,-9,0.26,15.49,7.65,17.11,-9
AOML_Explorer,Ex0503W,17.449,17012005,10:47:10,23.541,-82.754,388.81,-9,1023.18,1020.53,25.59,25.78,36.439,1.82,82.88,30.47,1023.18,247.5,18.9,86,10.29,381.8,2,-9,9,-9,0.24,13.84,19.53,17.06,-9
AOML_Explorer,Ex0503W,17.451,17012005,10:49:43,23.536,-82.767,389.72,-9,1023.51,1020.52,25.57,25.72,36.447,1.84,82.95,30.47,1023.51,246,18.8,92,11.84,382.23,2,-9,9,-9,0.19,15.89,17.86,17.12,-9
AOML_Explorer,Ex0503W,17.453,17012005,10:52:16,23.531,-82.781,390.04,-9,1023.33,1020.53,25.53,25.65,36.468,1.82,83.36,30.47,1023.33,246,18.9,85,10.29,382.13,2,-9,9,-9,0.19,13.72,17.5,17.31,-9
AOML_Explorer,Ex0503W,17.455,17012005,10:54:49,23.526,-82.794,388.59,-9,1023.27,1020.3,25.46,25.6,36.468,1.81,83.11,30.46,1023.27,247.3,18.8,86,8.24,380.91,2,-9,9,-9,0.24,12.45,25.91,17.57,-9
AOML_Explorer,Ex0503W,17.457,17012005,10:57:22,23.52,-82.808,388.34,-9,1023.24,1020.51,25.4,25.63,36.467,1.83,83.04,30.46,1023.24,247.1,18.8,90,9.26,382.01,2,-9,9,-9,0.24,13.61,24.14,17.6,-9
AOML_Explorer,Ex0503W,17.458,17012005,10:59:55,23.515,-82.821,388.26,-9,1023.24,1020.3,25.42,25.63,36.472,1.82,78.86,30.46,1023.24,248,18.7,90,9.78,381.65,2,-9,9,-9,0.24,13.96,23.46,17.52,-9
AOML_Explorer,Ex0503W,17.47,17012005,11:16:34,23.481,-82.907,385.41,-9,1023.43,1020.51,25.35,25.54,36.477,1.83,83.01,30.5,1023.43,247.2,18.6,96,7.72,378.72,2,-9,9,-9,0.24,13.14,31.64,18.09,-9
AOML_Explorer,Ex0503W,17.472,17012005,11:19:07,23.476,-82.92,385.73,-9,1023.41,1020.31,25.33,25.53,36.481,1.81,82.46,30.5,1023.41,247.9,18.6,94,9.78,379.09,2,-9,9,-9,0.24,14.43,25.54,17.48,-9
AOML_Explorer,Ex0503W,17.473,17012005,11:21:40,23.47,-82.934,385.7,-9,1023.41,1020.52,25.33,25.52,36.479,1.8,82.5,30.51,1023.41,246.1,18.7,90,8.75,378.98,2,-9,9,-9,0.23,13.31,25.06,17.33,-9
AOML_Explorer,Ex0503W,17.475,17012005,11:24:13,23.465,-82.947,385.77,-9,1023.42,1020.33,25.33,25.5,36.479,1.81,82.75,30.51,1023.42,246.6,18.6,70,9.78,378.79,2,-9,9,-9,0.24,11.52,12.32,17.69,-9
AOML_Explorer,Ex0503W,17.477,17012005,11:26:46,23.46,-82.96,385.78,-9,1023.67,1020.03,25.3,25.47,36.477,1.82,82.49,30.51,1023.67,246.9,18.6,75,11.84,378.87,2,-9,9,-9,0.23,13.62,8.58,17.68,-9
AOML_Explorer,Ex0503W,17.479,17012005,11:29:19,23.454,-82.973,385.43,-9,1023.33,1020.3,25.28,25.46,36.482,1.8,82.38,30.5,1023.33,247.6,18.6,86,12.35,378.55,2,-9,9,-9,0.23,15.56,15.04,17.81,-9
AOML_Explorer,Ex0503W,17.48,17012005,11:31:52,23.449,-82.986,384.86,-9,1023.54,1020.34,25.27,25.45,36.478,1.81,83.23,30.5,1023.54,246.4,18.7,80,11.84,378.04,2,-9,9,-9,0.23,14.45,11.74,17.73,-9